Location: Nairn
(57.5833°N, 3.8667°W)
Time: 01:43:32
(UTC+00:00)

Vanguard 1 Rocket - Pass Details

Date: 28 November 2020
Orbit: 655 x 4221 km, 34.3° (Epoch: 20 January)

Event Time Altitude Azimuth Distance (km) Brightness Sun altitude
Exits shadow 04:21:53 25° 219° (SW) 5,404 10.9 -31.5°
Maximum altitude 04:29:32 32° 188° (S) 4,422 10.6 -30.4°
Drops below altitude 10° 04:41:19 10° 133° (SE) 4,687 11.5 -28.9°
Sets 04:44:45 0° 123° (ESE) 5,254 12.0 -28.4°
